Wind_Speed
8 7 5 5 5 7 8 10 13 15 16 17 17 17 17 17 17 17 15 14 13 11 11 11 11 12 12 12 12 12 12 13 14 13 13 14 17 21 24 27 29 30 32 33 34 36 37 39 41 43 45 47 50 53 57 60 63 67 70 72 74 76 76 77 79 81 84 87 89 92 95 98 102 107 112 118 124 126 126 126 128 132 134 134 134 136 139
6 5 5 6 7 9 11 13 15 16 17 18 18 18 17 17 16 15 13 12 12 12 11 11 11 11 11 11 11 11 12 13 13 13 13 14 18 21 25 27 29 30 31 32 33 35 37 39 42 44 46 48 51 54 57 60 64 67 70 73 76 78 80 81 82 82 83 86 90 94 97 101 104 108 113 118 122 124 124 124 126 129 134 136 136 136 139
5 5 6 7 9 11 13 15 16 17 18 18 19 18 18 17 15 13 12 10 10 11 11 11 11 10 10 10 10 10 11 12 13 13 13 15 18 21 24 26 28 29 30 31 33 35 37 40 42 44 47 49 52 55 58 61 64 67 70 73 76 80 83 86 87 90 92 95 98 101 103 104 106 108 113 118 122 124 125 125 125 127 131 135 137 138 140
6 7 8 10 11 13 15 16 18 18 18 18 19 18 17 16 14 12 11 9 9 10 11 11 10 9 8 8 8 10 11 12 12 13 15 17 18 21 23 26 28 29 30 31 33 36 38 40 42 45 47 50 53 56 59 62 65 67 70 73 76 79 84 87 90 93 96 99 102 104 106 106 106 107 112 117 122 125 126 126 126 127 129 132 137 140 141
8 9 11 12 13 14 16 18 18 19 19 18 19 18 17 16 14 11 9 8 8 9 10 10 8 7 6 6 7 9 10 11 13 14 16 17 18 20 23 26 28 29 30 31 34 37 39 41 43 45 48 51 54 57 60 62 65 68 70 72 75 78 82 87 90 92 96 99 101 103 106 106 107 108 111 117 122 125 126 125 126 129 131 134 138 141 142
10 11 12 13 15 15 17 18 18 19 19 19 18 18 17 15 13 11 9 7 7 9 9 8 7 6 5 5 6 8 9 10 12 15 16 17 18 20 23 26 28 29 30 33 36 38 40 42 44 46 49 51 55 58 61 63 65 67 70 72 75 78 81 84 88 92 95 98 101 103 105 106 107 109 111 116 121 124 124 123 126 130 135 139 141 143 144
11 13 14 14 15 17 18 18 19 19 19 18 18 17 16 14 12 10 8 7 7 8 7 7 6 5 3 3 5 6 8 9 12 14 16 17 18 20 23 26 27 29 31 33 36 39 41 43 44 46 49 52 55 58 60 62 65 67 70 72 74 77 80 83 87 91 94 97 100 102 104 106 107 109 111 115 120 123 122 123 125 131 136 140 143 144 145
11 13 14 15 16 17 18 19 19 19 19 18 17 16 15 13 11 9 7 6 6 6 6 5 5 4 3 2 3 5 6 8 11 14 15 16 18 20 23 25 27 28 30 33 36 39 41 43 45 46 49 52 55 57 60 63 66 68 70 72 74 77 79 82 86 89 92 96 99 102 104 106 107 108 111 114 118 121 122 123 126 131 135 139 142 144 145
11 12 13 15 16 17 18 19 19 20 19 18 17 16 15 13 10 8 6 6 5 4 4 4 4 4 4 2 2 4 6 8 10 13 14 16 18 20 23 25 26 27 29 32 35 39 42 44 45 47 50 52 54 57 60 63 66 69 71 73 75 77 79 81 84 88 91 94 98 101 103 106 107 108 110 114 118 121 122 125 129 133 136 138 141 144 146
12 12 13 15 16 16 17 18 20 20 19 18 17 16 14 12 9 7 6 5 4 3 3 3 4 4 4 2 1 3 5 7 10 12 13 15 17 20 22 24 25 27 29 31 35 39 42 44 46 48 50 53 55 58 61 64 66 69 71 73 75 78 80 82 84 86 90 93 97 100 102 104 107 109 112 115 119 122 125 127 130 134 137 140 142 145 148
12 13 13 14 15 16 17 18 19 19 19 18 17 15 13 11 9 7 5 4 3 3 3 4 4 4 4 2 1 2 4 7 9 11 13 14 17 20 22 23 25 26 28 31 35 38 42 45 47 49 51 53 56 58 61 64 67 69 72 74 76 79 81 83 85 87 89 92 96 98 101 105 109 113 116 118 121 123 126 127 130 133 137 140 143 145 148
13 13 13 14 15 16 17 18 19 20 19 18 17 14 12 10 8 6 5 4 3 3 4 4 4 4 3 2 1 1 4 7 9 11 12 14 17 19 21 23 24 26 28 31 35 38 42 45 47 50 52 54 57 59 62 65 67 70 72 75 77 80 82 84 86 88 91 93 96 99 103 108 111 114 118 120 121 121 123 125 129 133 138 141 144 145 148
12 14 14 13 14 15 17 18 19 20 20 18 16 14 12 10 8 6 5 4 3 3 4 4 5 4 3 2 1 1 3 6 9 10 12 14 17 19 21 23 25 27 29 32 35 39 42 45 47 50 53 55 58 60 63 65 68 71 74 76 79 81 83 85 87 89 91 94 98 102 105 108 110 113 117 120 121 122 123 126 131 136 141 144 146 146 147
12 13 14 14 14 15 16 18 19 20 20 19 16 14 12 10 8 7 5 4 3 4 4 5 5 5 3 2 1 1 3 6 8 10 12 14 17 19 21 23 25 27 30 33 35 38 41 44 47 50 53 55 58 60 63 65 68 71 75 77 80 82 84 86 88 90 92 94 97 99 102 105 108 111 115 119 123 126 129 131 134 138 142 145 146 147 147
12 13 14 15 15 16 16 17 19 20 20 19 17 15 13 11 9 7 6 5 4 4 5 5 5 4 4 3 2 1 3 6 8 11 13 15 17 19 21 23 25 28 31 33 36 38 40 43 46 48 51 54 57 60 63 66 69 72 75 78 81 83 86 88 90 92 94 96 97 98 101 105 108 112 115 119 122 125 128 131 135 137 140 142 145 147 148
13 14 14 16 17 17 17 18 19 20 20 19 18 16 14 12 10 8 7 6 5 5 5 5 5 5 4 3 2 1 3 6 8 10 13 15 17 19 21 23 26 29 31 33 36 38 40 43 45 48 51 54 57 60 62 65 68 72 75 78 80 83 85 88 90 92 94 97 100 102 104 106 109 112 116 119 121 122 124 127 131 134 136 140 144 148 150
13 14 15 16 17 18 18 19 20 20 21 20 19 17 15 13 11 9 8 7 6 5 5 6 6 6 5 4 3 3 4 6 8 10 12 15 18 20 22 24 27 29 31 34 36 39 41 43 45 48 51 54 57 59 62 64 67 70 73 76 79 81 84 87 90 92 94 97 100 103 106 108 110 112 115 118 121 123 125 126 129 132 136 140 144 148 152
11 14 16 16 17 18 19 20 20 21 21 21 20 19 17 15 13 11 9 8 7 6 6 6 6 6 6 5 5 5 5 6 7 9 13 15 18 20 22 25 27 30 32 34 36 39 41 43 46 48 51 54 57 59 62 64 67 69 72 75 77 80 83 86 89 92 94 96 99 102 105 107 110 112 114 117 120 122 125 128 131 134 137 140 144 147 151
10 13 16 17 18 19 19 20 21 21 22 22 21 20 18 16 14 13 11 10 9 8 7 7 7 7 7 7 6 6 6 6 7 10 13 16 18 20 23 25 28 30 33 35 37 39 41 44 46 49 51 54 56 59 62 65 67 70 72 75 77 79 82 85 88 91 94 96 98 100 103 105 108 111 114 116 119 122 125 129 132 135 137 140 142 146 149
9 12 15 18 18 19 20 21 21 21 22 22 22 22 20 18 16 14 13 12 11 10 9 8 8 8 9 8 8 8 8 8 9 11 14 16 18 20 23 25 28 31 33 36 38 40 42 44 46 49 51 54 56 59 62 64 67 70 73 75 78 80 83 85 88 91 94 96 99 102 105 107 109 111 113 115 119 123 127 130 132 134 136 138 140 144 147
9 10 14 17 19 20 21 21 22 22 22 23 23 23 22 20 18 17 15 14 13 12 11 10 9 10 10 10 10 10 10 10 10 12 15 17 18 20 23 25 28 31 34 36 38 40 42 44 47 49 51 54 56 59 61 64 67 70 73 75 78 81 83 86 89 92 95 98 101 104 107 109 111 113 115 117 120 123 127 130 132 134 135 137 139 142 145
10 10 12 16 19 21 22 22 23 23 23 23 24 24 24 23 21 19 17 17 16 15 13 12 11 11 12 12 12 12 12 12 12 14 16 18 19 21 23 25 28 31 34 36 39 41 43 45 47 49 51 54 56 59 61 64 66 69 72 75 78 81 84 86 89 92 95 98 101 103 105 107 110 112 114 117 119 122 126 129 132 134 136 137 139 141 143
13 12 12 14 18 21 23 24 24 24 24 24 24 25 25 25 23 21 20 19 18 17 16 14 13 13 14 13 13 14 14 14 14 16 17 19 20 21 23 25 28 31 33 36 38 41 43 45 47 49 52 54 56 58 61 63 66 68 71 74 78 80 83 86 88 91 94 97 99 102 103 106 108 111 113 116 118 120 123 127 131 134 136 138 139 140 142
17 16 14 14 16 20 23 25 25 26 26 25 25 25 26 26 25 23 22 21 20 19 18 16 15 15 15 15 15 15 16 16 17 17 19 20 21 22 24 26 28 30 33 35 38 40 43 45 47 50 52 54 57 59 61 64 66 68 71 73 76 79 82 85 87 90 92 95 98 101 103 105 107 110 113 115 117 120 122 126 129 133 136 138 139 140 141
20 19 18 17 16 18 21 25 27 27 27 27 26 26 26 27 27 26 24 23 22 21 20 19 17 17 17 17 17 17 18 18 18 19 20 21 22 23 24 27 28 30 32 35 37 40 42 45 48 50 52 55 57 59 62 64 67 69 71 73 76 78 81 84 87 89 92 94 97 100 102 104 107 109 112 114 117 119 122 125 129 133 136 138 139 139 140
22 22 22 20 19 18 20 23 26 28 28 28 27 27 27 28 28 27 26 25 24 23 22 21 20 19 19 19 19 19 19 20 20 21 21 22 23 24 25 27 29 31 33 35 37 40 42 45 48 50 53 55 57 59 62 64 67 69 71 73 75 78 80 83 86 88 91 93 95 97 100 103 105 108 111 114 116 119 122 124 128 132 135 137 138 139 139
22 23 24 24 23 21 20 22 25 28 29 29 29 29 28 29 29 29 29 27 26 25 25 23 22 21 20 20 21 21 21 22 22 22 23 23 24 25 26 28 30 32 33 35 38 40 43 45 48 50 53 55 57 60 62 65 67 69 71 73 75 78 80 83 86 88 90 92 94 97 99 102 104 107 110 113 115 118 120 123 126 130 133 135 136 137 138
22 23 24 25 26 24 23 22 23 26 29 30 31 30 30 29 30 30 30 30 28 27 27 26 24 23 22 22 23 23 23 24 24 24 24 25 25 26 27 29 31 32 34 36 38 41 43 46 48 51 53 55 57 60 62 65 67 70 72 74 76 78 80 83 85 88 90 92 94 97 99 101 104 107 109 112 115 117 119 122 125 128 131 134 135 136 137
21 23 24 25 27 27 26 24 23 25 27 30 31 31 31 31 31 31 32 32 30 29 29 28 27 25 24 24 24 24 25 25 25 26 26 26 27 27 29 30 32 34 35 37 39 41 44 46 48 51 53 55 57 60 63 65 68 70 72 75 76 78 80 82 85 87 90 92 94 96 98 101 103 106 108 111 113 116 118 120 123 126 129 133 135 135 136
20 21 23 24 26 28 28 27 26 25 26 28 31 32 32 32 32 32 33 33 32 31 31 30 29 27 26 25 25 26 26 26 27 27 28 28 28 29 30 31 33 35 37 38 40 42 44 47 49 51 54 56 58 60 62 65 68 70 73 75 77 78 80 82 84 86 89 91 93 95 97 100 102 104 107 110 112 114 116 119 122 125 129 132 135 135 135
19 20 21 23 25 27 28 29 28 27 26 26 29 31 33 34 34 33 34 34 34 33 33 32 31 30 29 28 27 27 28 28 28 29 29 30 30 31 32 33 34 36 38 40 42 44 45 47 50 52 54 57 59 61 62 65 67 70 72 75 77 79 80 82 84 86 88 90 92 95 97 99 101 103 106 108 111 113 115 118 121 125 128 131 134 135 135
19 19 20 22 24 25 27 29 30 29 27 26 27 30 33 35 35 35 35 35 35 35 34 34 33 32 31 30 30 29 30 30 30 31 31 32 32 33 34 35 36 37 39 41 43 45 47 49 50 53 55 57 60 62 64 66 68 70 73 75 77 79 81 82 84 86 88 90 91 93 96 98 101 102 104 107 109 111 114 117 120 124 127 130 133 135 135
19 19 20 22 23 25 26 28 30 30 29 27 27 28 31 34 36 36 36 36 36 36 36 36 35 34 34 33 32 32 32 32 32 32 33 34 34 35 36 36 37 39 41 43 44 46 48 50 52 54 56 58 60 63 65 66 69 71 73 75 78 80 82 83 84 85 87 89 91 92 94 97 99 101 103 105 108 110 113 116 119 122 125 129 132 134 134
21 21 21 22 24 25 26 27 29 30 29 28 28 28 29 32 35 37 37 37 37 38 38 37 37 36 36 35 35 35 34 34 34 34 35 35 36 37 38 38 39 40 42 44 46 47 49 51 53 55 57 59 61 63 65 67 69 71 73 75 78 80 82 83 85 86 87 89 91 92 94 96 98 101 102 104 107 110 113 115 118 120 123 127 130 132 133
24 24 24 24 25 26 26 26 27 29 29 29 29 29 29 30 33 36 38 38 38 39 39 39 39 38 38 38 38 38 37 37 36 36 36 37 38 39 39 40 41 42 44 45 47 49 50 52 54 56 58 60 62 64 65 67 69 71 74 76 78 80 82 84 85 86 87 89 91 92 93 95 97 100 102 104 106 109 112 114 116 119 122 125 128 130 132
26 26 26 26 26 26 27 27 27 28 29 30 30 30 29 30 32 34 37 39 40 40 40 40 40 40 40 40 40 40 40 40 39 39 38 38 39 40 41 42 43 44 45 46 48 50 52 53 55 57 59 61 63 64 66 68 70 72 74 76 78 80 82 84 85 86 87 89 90 92 93 94 96 99 101 103 105 108 110 113 115 117 120 123 126 129 131
28 27 27 26 26 26 26 27 27 27 28 30 31 31 30 30 31 33 35 38 40 41 41 41 42 42 43 42 42 43 43 43 43 42 41 41 41 41 42 43 45 46 46 47 49 51 53 55 56 58 60 61 63 65 67 69 70 72 74 76 78 79 81 83 85 86 87 88 90 91 92 93 95 98 100 101 103 106 109 111 113 116 119 122 125 128 130
28 27 27 26 26 26 26 26 27 27 28 30 31 31 31 31 31 32 34 37 40 42 43 43 43 44 44 45 45 45 45 45 45 45 44 44 43 43 44 45 46 47 48 49 50 52 54 55 57 59 61 62 64 66 67 69 71 73 75 76 77 79 81 83 85 86 87 88 89 90 92 93 94 97 99 100 102 105 107 110 112 115 118 121 124 127 128
27 27 26 26 26 26 26 26 26 27 28 30 31 32 32 32 33 33 34 35 38 41 43 44 45 45 45 46 47 47 47 47 47 47 47 47 46 46 46 47 48 49 50 51 52 53 54 55 57 58 60 62 64 66 68 70 71 73 75 76 77 78 80 82 84 86 87 88 89 90 91 92 94 96 98 99 101 103 106 108 111 114 117 120 123 126 128
26 26 26 26 26 26 26 27 27 27 28 30 31 33 33 34 34 34 35 35 37 39 42 44 46 46 47 47 48 48 49 49 49 49 49 49 49 49 48 49 49 50 51 52 53 54 54 55 57 58 60 62 64 66 68 70 72 74 75 76 76 78 79 81 83 85 86 87 88 89 90 92 93 95 97 98 100 102 105 107 110 113 117 119 122 125 127
26 26 26 26 26 27 27 27 28 28 28 30 32 34 35 35 36 36 36 37 37 38 41 43 46 47 48 48 49 49 50 50 50 50 50 51 51 51 51 51 51 51 52 53 54 54 54 55 57 58 60 61 64 66 68 70 72 74 75 75 76 77 79 81 83 84 86 87 88 88 89 91 93 94 96 97 99 101 104 107 109 112 115 118 122 124 126
26 27 27 27 28 28 29 29 29 30 30 32 33 35 36 37 37 38 38 38 39 39 40 42 44 47 48 49 50 50 51 51 51 51 51 52 52 52 53 53 52 53 53 54 54 54 54 55 57 59 60 62 64 66 68 70 72 74 74 75 76 78 79 81 82 84 85 86 87 88 89 90 92 94 95 96 98 101 103 106 108 111 114 117 121 123 125
27 28 28 28 29 30 30 31 32 33 34 35 36 37 38 39 39 40 40 40 41 41 41 42 43 45 48 50 51 51 52 52 52 52 52 53 53 53 54 55 54 54 55 55 55 56 56 57 58 60 61 63 65 67 69 70 72 74 75 76 77 78 80 81 82 84 85 86 86 87 88 89 91 93 94 95 97 100 103 105 108 110 113 116 120 122 124
27 27 28 29 30 31 32 32 33 35 36 37 38 39 40 41 42 42 43 43 43 43 43 43 44 45 47 49 51 53 53 53 52 52 53 53 54 54 55 56 56 56 57 57 57 57 58 59 59 61 63 64 65 67 69 70 72 74 76 77 78 79 80 81 82 83 85 85 85 86 87 88 90 92 93 94 97 100 102 104 107 110 113 116 119 121 123
26 27 28 29 30 32 33 34 34 35 36 36 38 39 40 41 43 43 44 45 45 45 46 46 46 46 47 49 51 53 54 54 53 53 52 53 54 55 55 56 56 57 58 59 59 58 59 60 61 62 63 65 66 68 69 71 73 76 77 79 80 80 80 80 82 83 84 84 85 85 86 87 89 90 92 94 97 100 102 104 107 109 112 115 118 121 122
27 28 29 30 31 32 33 34 35 35 35 35 36 37 38 39 41 42 42 43 44 45 46 47 47 48 49 49 50 51 52 53 54 53 52 53 54 55 55 56 57 57 58 59 59 59 59 60 61 62 64 65 67 69 71 73 76 78 80 81 81 81 80 80 82 83 84 84 84 84 85 86 87 89 91 94 97 99 102 104 107 109 112 115 118 120 121
27 28 29 30 31 32 33 33 33 33 33 33 34 35 35 36 37 38 39 40 41 42 43 44 46 47 48 49 50 50 50 51 53 52 52 52 53 54 55 56 57 57 57 58 59 59 59 60 61 63 64 66 68 70 73 76 78 80 81 82 81 80 80 81 82 82 83 83 83 84 84 85 86 88 91 94 97 99 102 104 107 109 112 115 118 120 121
27 28 29 30 31 32 33 32 31 31 31 31 31 32 33 33 34 35 36 37 37 38 39 40 42 44 45 46 46 47 47 48 50 51 50 50 51 53 54 55 56 57 57 57 58 59 60 60 62 63 65 67 70 73 76 78 80 82 82 82 81 80 80 81 81 82 82 82 82 83 83 84 86 88 91 94 97 99 102 104 107 109 112 115 118 120 121
27 28 29 30 31 32 32 32 31 30 29 29 29 29 30 31 32 32 33 34 35 36 37 37 38 40 41 41 42 43 43 44 46 48 48 48 49 51 53 54 55 56 57 57 58 59 60 61 62 64 67 69 72 75 77 79 81 82 82 81 81 81 81 81 81 81 81 81 82 82 83 84 86 89 92 95 97 100 102 105 107 110 112 115 118 120 120
28 28 29 30 31 32 32 32 31 30 29 29 28 28 28 29 29 30 31 32 33 34 35 35 36 37 38 38 39 40 41 42 43 45 46 46 47 48 51 53 53 54 56 57 58 59 60 62 63 66 68 71 73 75 77 78 79 80 81 82 81 81 80 80 80 80 80 81 81 82 83 85 87 90 93 96 98 100 103 105 108 110 112 115 117 119 120
28 28 29 30 31 32 32 32 32 31 30 29 28 28 28 28 28 29 30 30 31 32 33 34 34 35 35 36 37 38 38 40 42 43 44 44 45 46 48 51 53 54 56 58 59 60 61 63 65 67 69 71 72 74 75 76 78 80 81 82 81 80 80 79 79 79 79 80 81 82 84 86 88 91 94 97 99 101 103 106 108 110 112 115 117 119 119
29 29 29 30 30 31 31 31 31 31 30 30 29 29 28 28 28 29 29 30 30 31 32 32 33 33 33 34 35 35 36 38 41 43 44 44 45 45 47 49 52 53 55 58 60 61 62 63 64 66 67 69 70 72 73 75 77 79 80 80 80 79 78 78 78 78 78 79 81 83 85 87 89 92 94 97 99 101 104 106 108 110 112 115 117 118 119
Wind_Direction
127 128 134 143 146 145 145 144 142 139 136 134 135 136 135 132 133 137 141 143 145 143 139 134 131 125 118 109 99 90 80 68 59 51 44 40 37 36 34 30 27 25 23 21 19 18 17 16 16 15 14 13 12 11 11 10 9 8 7 7 6 8 11 12 12 12 11 9 8 8 6 5 4 3 4 5 5 5 5 4 4 4 2 360 0 1 2
130 138 145 147 145 145 145 143 141 138 137 138 139 138 136 135 137 142 148 151 148 141 137 133 129 125 117 108 99 89 76 63 54 46 38 35 34 34 32 28 25 22 20 19 17 16 16 15 14 13 13 12 11 11 10 9 9 8 7 6 5 6 8 10 10 12 12 10 9 9 9 7 5 4 3 4 5 5 5 5 4 4 3 0 0 2 3
137 142 143 143 143 145 143 140 138 138 140 142 141 140 139 139 143 150 156 157 149 139 134 133 131 125 117 107 98 86 72 57 47 40 35 32 32 32 29 24 21 20 19 17 16 15 14 14 13 12 12 11 10 10 9 9 8 8 7 7 6 5 6 7 8 9 10 10 9 10 10 9 7 5 3 4 5 5 5 5 4 4 4 2 1 2 3
137 138 140 143 143 141 140 140 140 142 145 145 143 142 142 144 149 158 162 159 150 136 132 135 135 128 119 108 96 83 68 54 43 37 34 32 31 29 25 21 19 18 17 16 14 14 13 12 12 12 11 11 10 9 9 8 8 8 8 8 7 6 6 6 7 8 8 9 9 9 9 9 8 6 4 4 5 5 5 5 4 4 4 4 3 2 3
136 137 139 141 142 140 140 142 145 147 148 148 146 146 147 150 156 165 168 162 147 132 132 139 141 136 124 109 94 79 64 50 40 35 32 31 30 26 21 18 17 16 15 14 13 12 11 10 10 10 11 10 10 9 8 8 8 9 9 9 9 8 7 6 7 8 8 8 9 8 9 8 8 7 5 4 6 6 6 5 4 4 5 5 5 4 4
137 138 139 141 142 142 143 147 149 151 151 151 151 150 153 157 164 170 170 160 141 130 135 146 151 148 133 107 91 76 59 46 37 31 29 29 28 23 18 16 16 15 14 13 11 10 10 9 9 9 9 9 9 8 8 8 8 9 9 10 10 10 9 8 8 8 8 8 8 8 8 8 8 7 6 5 5 6 6 5 5 6 6 7 6 5 5
140 140 140 141 144 146 149 152 154 154 155 156 154 155 159 164 168 170 166 153 136 133 143 155 162 163 147 109 90 72 53 39 32 27 25 26 24 19 16 15 15 15 13 12 11 10 9 9 9 8 8 8 7 7 7 7 8 9 9 10 11 11 10 10 9 8 8 8 8 8 8 8 8 7 6 5 5 6 6 6 7 7 7 8 7 6 5
141 143 143 144 148 153 156 157 157 158 160 160 159 160 165 169 169 167 159 146 139 140 151 164 171 175 168 127 92 67 44 31 25 23 23 23 20 16 15 14 14 14 13 11 10 10 10 9 8 8 8 7 6 6 6 7 7 8 9 9 10 10 11 10 9 8 8 8 8 7 7 8 8 7 6 5 5 6 7 8 8 8 8 8 8 6 5
140 143 145 148 153 158 160 160 161 163 164 164 164 166 170 171 169 164 154 147 150 154 161 176 186 187 183 157 97 54 33 23 18 19 21 21 17 14 13 12 12 12 11 11 10 10 10 9 8 8 7 7 6 6 6 6 7 7 8 8 9 10 10 10 9 9 8 7 7 7 7 7 7 7 7 6 5 6 8 9 8 8 8 8 8 7 6
141 144 149 155 159 162 165 165 166 167 167 168 170 172 173 172 169 165 159 156 163 177 188 200 201 192 182 167 105 45 24 17 14 16 19 18 14 12 11 10 10 10 10 10 9 10 10 9 8 8 7 6 5 5 5 5 6 6 7 7 8 8 9 9 9 9 8 7 7 7 7 6 7 7 7 7 7 7 9 10 9 8 8 8 9 8 7
145 149 155 162 165 167 170 171 170 170 171 173 176 177 177 175 171 167 166 168 179 207 226 219 205 188 173 161 121 36 19 13 12 14 16 14 11 9 8 8 8 8 9 9 8 8 8 8 7 7 6 5 4 4 5 5 5 5 6 6 7 8 8 8 9 8 8 8 7 6 6 6 7 8 8 8 9 9 9 9 9 9 9 9 9 9 9
152 155 161 167 171 173 175 177 176 175 176 179 182 183 181 181 178 175 175 183 199 228 238 219 197 180 165 158 145 36 16 10 11 13 12 10 8 6 5 5 5 6 7 7 7 7 7 6 6 5 4 4 4 4 4 4 4 4 4 5 6 7 7 8 8 8 7 7 6 6 7 7 7 8 8 9 9 9 9 9 9 9 9 9 9 9 9
159 162 166 171 176 180 182 184 183 180 181 185 188 188 188 189 189 188 190 198 215 232 229 210 192 179 169 166 161 37 11 8 8 10 8 5 3 2 2 3 4 4 5 5 5 6 5 5 4 3 3 3 3 4 4 3 3 3 3 4 4 5 6 7 7 7 7 7 6 6 7 7 7 7 8 8 8 9 9 10 10 10 10 9 9 9 9
168 169 171 175 181 187 190 192 190 186 187 191 194 195 196 197 198 200 203 211 224 226 217 204 193 184 178 179 176 24 6 6 7 6 5 2 358 358 360 0 2 3 3 3 4 4 4 3 3 2 2 2 2 3 2 2 2 2 2 3 3 4 5 5 5 5 5 6 7 6 6 6 6 7 7 8 9 9 9 9 10 10 9 9 9 9 9
175 178 178 180 185 192 197 198 197 194 193 196 199 202 204 206 207 209 213 219 223 222 216 207 199 194 191 193 199 321 356 1 4 4 1 357 355 356 357 359 360 1 2 2 2 3 2 1 1 1 0 0 1 1 1 1 1 1 1 1 2 2 3 3 4 4 4 4 5 6 6 6 6 6 7 8 9 9 9 9 9 9 9 9 9 9 9
182 184 187 187 190 194 200 204 204 202 200 201 205 209 211 213 216 217 221 226 225 222 222 216 209 207 204 207 223 285 339 352 0 1 356 353 353 355 356 357 358 359 359 360 0 0 360 359 358 358 358 358 358 359 359 360 360 360 360 360 0 1 1 2 2 2 3 3 3 4 5 5 5 6 6 6 7 7 8 9 8 8 9 9 9 9 9
192 192 193 195 197 198 201 207 211 210 208 207 210 214 217 220 223 224 226 231 229 227 228 225 218 215 214 219 237 272 314 340 353 354 350 349 351 352 354 356 356 356 356 357 357 357 357 356 355 355 355 355 356 356 357 358 358 359 359 359 359 360 0 0 1 1 2 2 2 3 4 4 4 5 5 5 5 5 6 7 8 8 8 9 9 9 9
201 203 202 202 203 203 204 209 214 216 215 214 215 219 222 225 227 229 232 234 235 234 235 235 227 221 220 230 246 265 296 326 341 343 343 345 347 349 351 353 354 354 354 354 354 354 355 354 353 353 353 353 354 355 355 356 357 358 358 358 358 359 359 359 360 360 0 1 2 2 3 3 3 4 4 5 5 5 4 5 7 8 8 8 8 9 9
206 210 211 210 210 210 209 211 215 220 222 221 220 223 226 229 231 233 236 239 240 240 242 243 236 227 228 238 250 261 282 308 323 329 334 338 342 346 349 351 352 352 353 353 352 352 352 352 352 352 352 352 352 353 354 355 356 357 357 357 357 358 358 358 358 359 359 360 1 1 2 3 3 3 3 3 4 4 4 5 5 6 6 7 8 8 9
215 215 216 217 217 217 216 217 219 222 225 226 226 227 229 231 234 236 238 241 243 244 247 249 243 235 236 246 253 259 274 293 307 316 324 331 337 343 347 349 351 351 352 352 351 350 350 350 350 350 351 351 351 352 353 353 354 355 356 356 356 356 357 357 357 358 358 358 359 360 1 2 2 3 3 3 3 4 5 5 4 5 6 6 7 8 8
225 224 223 222 222 222 223 223 224 225 228 230 230 230 231 233 235 237 240 242 245 247 250 253 250 243 244 251 256 260 269 283 296 306 315 324 332 339 344 347 349 350 351 351 350 349 349 349 349 349 349 350 350 351 352 352 353 354 355 355 355 355 356 357 357 357 357 357 358 359 360 1 1 1 2 2 2 3 4 4 4 4 5 6 7 7 8
230 231 231 229 227 227 227 228 228 229 231 233 234 234 234 235 236 238 240 243 245 248 251 254 254 250 249 254 258 261 268 280 291 300 309 317 325 333 339 343 345 347 349 349 349 349 348 348 347 347 348 349 350 350 351 351 352 353 354 354 355 355 355 356 356 356 356 357 357 358 359 359 360 0 1 1 2 2 3 3 3 3 4 5 6 7 8
237 237 237 236 234 232 231 232 232 232 233 235 237 237 236 236 237 239 241 243 246 248 252 255 256 254 253 256 259 263 269 278 289 297 304 311 319 328 334 338 341 344 346 347 347 347 347 346 346 346 347 348 349 349 350 350 351 352 353 354 354 354 354 355 355 356 356 356 356 357 357 358 358 359 0 1 1 1 2 2 2 3 3 4 6 7 7
242 243 243 244 242 238 235 234 235 235 235 237 238 239 239 238 238 239 242 244 246 248 252 255 257 256 256 258 260 264 270 278 286 294 300 306 314 323 329 333 337 340 341 342 343 344 344 344 344 345 345 346 347 348 349 349 350 351 352 353 353 354 354 354 354 355 355 355 356 356 356 357 357 358 359 360 360 0 1 1 2 2 3 4 5 6 7
243 245 246 247 248 246 242 238 237 237 238 238 239 239 240 240 240 240 242 244 246 249 251 254 257 257 257 259 262 265 270 276 284 291 296 302 310 318 324 328 332 335 337 339 339 340 341 341 342 343 343 344 346 347 347 348 349 350 351 352 352 353 353 353 353 354 354 355 355 356 356 356 356 357 358 359 359 360 360 0 1 2 3 3 4 5 6
244 245 246 247 249 251 249 245 241 240 240 240 240 240 240 241 241 241 242 245 247 249 251 254 257 257 258 259 262 265 269 275 282 288 294 300 306 313 320 324 327 330 333 335 336 336 337 338 339 340 342 343 344 345 346 347 348 349 349 350 351 352 352 352 352 353 353 354 355 355 355 355 355 356 357 358 359 359 359 360 1 2 2 2 3 4 5
249 248 249 250 250 251 253 251 248 244 243 243 242 241 241 241 242 242 243 245 247 249 251 254 257 259 260 260 262 265 268 273 279 286 292 297 303 310 316 320 323 326 329 331 332 333 334 335 336 338 339 341 342 343 344 345 346 347 348 349 350 351 351 351 351 351 352 353 354 354 354 354 354 355 356 357 358 358 359 359 0 1 2 2 2 3 4
255 254 253 253 253 254 255 255 254 251 247 246 245 244 243 242 243 244 244 246 248 250 252 255 258 260 262 262 263 265 268 272 278 283 289 295 300 306 311 315 319 322 325 327 329 330 331 332 334 335 337 339 340 341 342 343 344 345 346 347 348 349 350 350 350 350 351 351 353 353 354 353 353 354 355 356 357 358 358 359 359 360 1 1 2 3 3
261 260 258 257 256 256 257 258 259 258 254 250 248 247 246 245 244 245 246 247 249 251 253 256 258 261 263 264 265 266 269 272 276 281 286 292 297 302 307 311 315 318 321 324 326 327 328 330 331 333 334 336 338 339 340 341 342 343 344 345 346 348 349 349 350 349 350 350 351 352 353 353 353 353 354 355 356 357 358 358 358 359 360 1 2 2 3
269 265 263 261 259 258 258 260 262 263 262 257 253 250 249 248 247 247 247 248 249 252 254 256 259 261 264 266 267 268 269 272 276 279 284 289 294 298 302 306 310 314 317 320 323 324 325 327 329 331 332 334 336 337 338 339 340 341 342 344 345 346 347 348 349 349 349 349 350 351 352 352 352 352 353 354 355 356 356 357 357 358 359 360 1 2 2
276 272 268 265 263 260 259 260 262 264 267 265 260 254 251 251 250 249 250 250 251 252 255 257 259 262 264 267 269 269 270 272 275 278 282 287 291 295 299 302 306 310 314 317 319 321 323 325 327 329 331 332 334 335 336 338 338 339 341 342 343 344 345 346 347 348 348 348 349 349 351 351 351 351 352 353 354 355 355 356 356 357 358 359 360 1 2
279 277 275 272 269 266 262 261 262 265 268 269 267 261 256 254 253 252 252 252 253 253 255 258 261 263 264 267 270 271 272 273 275 278 281 285 289 292 296 299 303 307 310 313 316 318 320 323 325 327 329 331 332 333 335 336 337 338 339 341 342 343 344 345 346 346 347 347 348 348 349 350 351 351 351 352 352 353 354 355 355 356 357 357 359 360 1
282 282 281 279 277 273 268 265 264 265 268 271 272 269 263 259 256 255 254 255 255 255 256 258 261 263 265 267 270 272 274 275 276 278 281 283 286 290 293 296 300 304 307 310 313 315 318 320 322 325 327 329 331 332 333 335 336 337 338 339 341 341 342 343 344 345 346 346 346 347 348 349 350 350 350 350 351 352 353 354 354 355 356 356 357 359 360
286 286 285 284 281 279 276 271 268 267 268 270 273 274 271 266 261 258 257 256 257 257 258 259 261 263 265 267 270 272 274 276 277 278 280 282 285 288 291 294 298 301 304 307 310 313 315 318 320 323 325 327 329 331 332 333 334 336 337 338 339 340 341 342 343 344 345 345 345 346 347 348 349 349 349 349 350 351 352 353 354 354 355 355 356 357 359
288 288 286 285 284 283 281 278 273 269 268 269 271 274 275 273 267 262 260 258 258 259 259 260 261 263 265 268 269 272 274 276 278 279 280 282 285 287 290 293 296 299 302 305 308 310 313 315 318 321 323 325 327 329 330 332 333 334 336 337 338 339 340 340 341 342 343 344 344 344 345 347 348 348 348 349 349 350 351 352 352 353 354 354 355 356 358
288 288 287 285 284 284 283 282 278 273 269 268 270 273 276 277 274 269 264 261 260 260 261 261 262 263 265 267 269 271 273 276 278 279 281 282 284 287 289 292 295 297 300 303 306 308 311 314 316 319 322 324 326 328 329 331 332 333 334 336 337 337 338 339 340 341 342 343 343 343 344 345 347 347 348 348 348 349 350 351 351 352 353 353 354 355 357
288 288 288 286 285 284 284 284 282 276 271 268 269 272 275 278 278 275 270 265 262 262 262 263 263 264 265 267 269 271 273 275 277 279 281 283 285 287 289 291 294 296 299 302 305 307 310 313 316 318 321 323 325 327 328 330 331 332 334 334 335 336 337 338 338 339 341 342 342 342 343 344 346 347 347 347 347 348 349 349 350 351 352 352 354 355 356
288 288 288 286 285 284 284 284 283 279 273 269 269 270 273 277 279 279 276 271 266 263 263 263 264 264 265 266 268 270 272 274 277 279 281 283 285 287 289 291 294 296 298 301 304 307 310 313 315 318 320 322 324 326 327 329 330 332 333 334 334 335 335 336 337 338 339 340 341 341 341 343 344 346 346 346 347 347 348 348 349 350 351 352 353 354 355
289 288 288 286 285 284 283 283 283 280 275 270 269 269 272 276 278 280 279 276 271 267 264 264 264 265 265 266 268 269 272 274 276 278 281 283 285 287 290 292 294 296 298 301 304 306 309 312 315 317 319 321 323 325 326 328 330 331 332 333 333 334 334 335 336 337 338 339 340 340 340 342 343 345 345 345 346 346 347 347 348 349 350 351 352 353 354
289 289 288 286 284 283 282 282 282 280 276 272 270 270 271 274 277 279 280 279 276 271 267 265 265 265 266 267 268 270 271 273 275 278 280 283 285 287 290 292 294 296 299 301 303 306 309 311 314 316 319 320 322 324 326 327 329 330 331 332 332 333 333 334 335 336 337 338 338 339 339 341 342 344 344 344 345 345 346 346 347 348 349 350 351 352 353
290 289 288 286 284 282 280 279 279 279 277 274 272 271 271 272 275 277 279 280 279 277 273 269 266 266 267 268 269 270 272 273 275 277 280 282 285 287 289 291 294 296 298 300 303 306 308 311 313 315 318 320 321 323 325 327 328 329 330 331 331 331 332 333 334 335 336 337 337 338 339 340 341 343 343 343 343 344 345 345 346 347 348 349 350 351 352
293 291 289 287 284 281 279 277 276 276 275 274 273 272 272 272 273 275 277 278 279 280 278 274 271 268 268 269 270 271 272 274 275 277 279 281 284 286 289 291 293 296 297 300 302 305 308 310 312 315 317 319 321 323 325 326 327 328 329 329 330 330 331 332 333 334 335 335 336 337 338 339 341 342 342 342 342 343 343 344 345 346 347 348 349 350 351
297 296 294 291 288 284 281 278 275 274 272 272 271 271 271 271 272 273 274 275 277 278 279 278 275 273 271 270 270 271 273 274 276 277 279 281 283 286 288 291 293 295 297 300 302 305 307 310 312 314 317 319 321 323 325 326 327 327 328 328 328 329 330 331 332 333 334 334 335 336 337 339 340 341 341 341 341 341 342 343 344 345 346 347 348 349 350
300 298 297 294 292 289 286 283 280 277 275 273 273 272 272 271 272 272 272 273 274 275 276 277 277 276 274 272 272 272 273 274 276 277 279 281 283 285 287 290 292 295 297 299 302 304 307 310 312 314 317 319 321 323 324 325 326 326 326 327 327 328 329 330 331 332 333 333 334 335 337 338 339 339 340 340 340 340 341 342 343 344 345 346 347 348 349
302 300 299 296 294 292 290 288 286 284 281 279 277 276 275 274 273 273 273 273 273 273 274 274 275 275 275 275 274 273 273 274 276 277 279 281 282 284 286 289 292 294 297 299 301 304 307 310 312 315 317 319 321 322 324 324 325 325 325 325 326 327 328 329 330 331 332 332 333 334 336 338 338 338 338 338 339 339 340 341 342 343 344 345 346 347 348
305 303 301 300 298 296 294 293 292 291 288 285 282 280 278 277 276 275 275 274 274 274 274 274 274 274 275 276 276 276 275 275 276 277 279 281 283 284 286 289 291 294 296 299 302 305 308 310 313 315 317 319 321 322 323 323 323 323 323 323 324 325 327 329 330 330 330 331 332 334 336 337 337 337 337 337 338 338 339 340 341 342 343 344 345 346 347
309 308 306 305 304 302 301 300 298 296 294 291 288 285 282 281 279 278 278 277 277 277 276 276 275 275 275 277 278 278 278 278 278 278 279 281 283 285 287 289 291 294 297 299 302 305 308 311 313 315 317 319 320 321 322 322 322 321 321 321 323 324 326 328 329 329 329 330 332 334 335 336 336 336 335 336 336 337 338 339 340 341 342 343 344 345 345
319 317 316 315 313 312 310 309 307 303 300 297 294 291 289 287 285 284 282 282 281 281 281 280 279 279 279 280 281 281 281 281 280 280 281 282 284 286 288 290 293 295 298 301 303 306 309 312 314 316 318 319 320 320 320 320 320 320 319 320 321 324 326 328 328 328 329 330 332 334 335 335 335 334 334 335 335 336 337 338 339 340 341 342 342 343 344
331 330 328 326 325 323 321 319 316 312 308 305 301 299 296 294 292 290 289 288 288 287 287 287 286 286 286 286 286 286 286 285 284 284 284 286 287 289 290 293 296 298 300 302 305 308 310 313 315 316 317 318 319 319 319 318 318 318 318 319 321 324 326 327 328 328 329 330 332 333 333 334 333 333 333 334 335 335 336 337 338 339 340 341 341 342 343
343 343 341 339 337 335 333 331 327 323 319 315 311 308 305 303 301 299 297 296 295 294 294 294 294 294 293 293 293 292 291 290 289 289 289 291 293 294 295 297 300 302 303 305 307 309 311 313 315 316 316 317 317 317 317 317 316 316 317 318 321 324 326 327 327 328 329 330 331 332 332 332 332 332 333 333 334 335 335 336 337 338 339 340 340 341 342
353 353 352 349 347 346 345 343 339 335 332 328 324 320 316 313 311 308 306 304 303 302 301 301 301 301 300 299 298 297 297 296 295 295 296 298 300 301 301 302 304 306 307 307 309 310 312 313 314 315 315 315 315 315 315 315 315 315 316 319 322 324 325 326 327 328 329 329 330 330 331 331 332 332 333 333 334 334 335 335 336 337 338 339 339 340 341
358 357 356 354 353 351 351 351 349 346 343 339 336 332 328 324 321 317 315 312 311 309 308 308 307 307 306 305 304 304 305 304 302 301 303 305 306 307 307 307 308 309 309 310 311 312 312 313 313 314 314 314 314 314 314 314 314 315 317 319 321 323 324 325 326 327 328 329 329 329 330 330 331 332 333 333 333 334 334 335 335 336 337 338 338 339 340
Height
10667 10668 10668 10669 10669 10670 10670 10671 10672 10673 10674 10675 10677 10678 10680 10680 10681 10683 10684 10685 10686 10687 10687 10687 10687 10687 10687 10687 10687 10686 10685 10685 10683 10682 10681 10680 10678 10677 10675 10673 10670 10668 10665 10663 10659 10656 10653 10650 10646 10642 10638 10633 10629 10623 10617 10611 10604 10597 10589 10582 10575 10571 10567 10563 10556 10548 10538 10529 10520 10509 10495 10484 10473 10461 10449 10436 10422 10408 10393 10376 10363 10350 10336 10327 10318 10300 10279
10668 10668 10669 10669 10670 10670 10671 10672 10673 10674 10675 10676 10678 10679 10681 10682 10683 10685 10686 10686 10687 10687 10688 10688 10687 10688 10687 10687 10687 10686 10685 10684 10683 10682 10681 10679 10678 10676 10674 10672 10670 10668 10665 10662 10659 10656 10652 10649 10645 10641 10637 10632 10627 10621 10615 10609 10603 10595 10587 10579 10570 10563 10558 10555 10551 10548 10542 10533 10522 10510 10495 10480 10465 10452 10442 10433 10423 10412 10402 10388 10374 10359 10339 10321 10311 10299 10279
10669 10669 10669 10670 10670 10671 10672 10673 10674 10675 10677 10678 10679 10680 10682 10683 10684 10686 10687 10687 10688 10688 10688 10688 10688 10688 10688 10687 10687 10686 10685 10684 10683 10682 10680 10679 10677 10676 10674 10672 10670 10667 10665 10662 10659 10655 10651 10648 10644 10639 10635 10630 10625 10620 10614 10608 10602 10595 10586 10577 10568 10559 10550 10544 10537 10529 10522 10513 10503 10494 10485 10474 10462 10449 10438 10430 10421 10412 10400 10387 10375 10364 10347 10323 10304 10290 10274
10669 10669 10670 10670 10671 10672 10673 10674 10675 10677 10678 10679 10680 10681 10683 10684 10685 10687 10688 10688 10688 10688 10688 10688 10688 10688 10688 10687 10687 10686 10685 10684 10683 10681 10680 10678 10677 10675 10674 10672 10669 10667 10664 10661 10658 10654 10650 10647 10643 10638 10634 10629 10624 10618 10613 10607 10601 10594 10586 10578 10569 10559 10548 10539 10531 10522 10512 10503 10495 10486 10478 10470 10462 10453 10442 10430 10419 10406 10392 10381 10371 10363 10354 10335 10309 10287 10271
10669 10670 10670 10671 10672 10673 10674 10675 10676 10678 10679 10680 10681 10682 10683 10685 10686 10687 10688 10688 10688 10688 10688 10688 10688 10688 10688 10687 10687 10686 10685 10684 10682 10681 10680 10678 10677 10675 10673 10671 10669 10666 10663 10660 10656 10653 10649 10645 10641 10637 10632 10628 10623 10617 10612 10606 10600 10593 10586 10578 10570 10561 10551 10540 10530 10522 10514 10506 10497 10487 10477 10469 10462 10453 10442 10430 10418 10405 10392 10382 10372 10359 10345 10329 10308 10287 10269
10670 10670 10671 10672 10673 10674 10675 10676 10677 10679 10680 10681 10682 10683 10684 10685 10686 10687 10688 10688 10688 10688 10688 10688 10688 10688 10688 10687 10686 10686 10685 10683 10682 10681 10679 10678 10676 10675 10673 10670 10668 10665 10661 10658 10654 10651 10647 10643 10639 10635 10630 10626 10621 10616 10610 10605 10599 10593 10586 10578 10571 10563 10554 10544 10533 10524 10516 10506 10497 10489 10480 10470 10461 10451 10442 10430 10419 10408 10398 10386 10371 10350 10328 10311 10297 10281 10262
10670 10671 10672 10672 10673 10675 10676 10677 10678 10679 10681 10682 10683 10684 10685 10685 10686 10687 10688 10688 10688 10688 10688 10688 10688 10688 10687 10687 10686 10685 10684 10683 10682 10680 10679 10677 10676 10674 10672 10669 10667 10663 10660 10657 10653 10649 10645 10641 10637 10633 10629 10624 10620 10615 10610 10604 10598 10592 10585 10578 10571 10564 10555 10547 10537 10527 10517 10508 10500 10491 10483 10473 10462 10453 10443 10431 10419 10409 10400 10386 10369 10350 10330 10311 10295 10279 10263
10671 10672 10672 10673 10674 10675 10677 10678 10679 10680 10682 10683 10683 10684 10685 10686 10687 10687 10688 10688 10688 10688 10688 10688 10688 10687 10687 10687 10686 10685 10684 10683 10681 10680 10678 10677 10675 10673 10671 10668 10666 10663 10659 10656 10653 10649 10645 10641 10637 10633 10628 10624 10619 10614 10608 10603 10596 10590 10584 10577 10571 10564 10556 10548 10539 10529 10520 10512 10502 10492 10482 10473 10464 10455 10445 10434 10424 10414 10401 10384 10367 10351 10335 10317 10299 10284 10270
10672 10673 10673 10674 10675 10676 10677 10678 10680 10681 10682 10683 10684 10685 10685 10686 10687 10687 10687 10687 10687 10687 10687 10687 10687 10687 10687 10686 10685 10684 10683 10682 10681 10679 10678 10676 10674 10672 10670 10668 10665 10662 10659 10656 10652 10649 10645 10641 10636 10632 10628 10623 10618 10613 10607 10601 10594 10588 10582 10576 10570 10563 10556 10549 10541 10532 10522 10513 10505 10495 10484 10474 10467 10459 10448 10437 10424 10410 10394 10375 10357 10342 10330 10318 10304 10286 10266
10673 10673 10674 10675 10676 10677 10678 10679 10680 10682 10683 10684 10684 10685 10686 10686 10686 10687 10687 10687 10687 10687 10687 10687 10686 10686 10686 10686 10685 10684 10683 10682 10680 10679 10677 10675 10673 10671 10669 10667 10664 10661 10658 10655 10652 10648 10644 10640 10635 10631 10626 10621 10616 10611 10605 10599 10593 10587 10581 10575 10569 10562 10555 10548 10541 10532 10523 10514 10504 10494 10487 10480 10470 10458 10447 10435 10419 10400 10383 10369 10355 10342 10328 10314 10299 10281 10263
10674 10674 10675 10676 10677 10678 10679 10680 10681 10682 10683 10684 10685 10685 10686 10686 10686 10686 10686 10687 10687 10687 10686 10686 10686 10685 10685 10685 10684 10683 10682 10681 10679 10678 10676 10674 10673 10670 10668 10666 10663 10660 10657 10654 10650 10646 10642 10638 10634 10629 10624 10620 10615 10609 10603 10597 10591 10586 10580 10574 10567 10560 10552 10544 10537 10530 10523 10514 10505 10498 10490 10478 10463 10449 10438 10427 10412 10393 10377 10367 10360 10351 10335 10317 10300 10284 10268
10674 10675 10676 10677 10678 10679 10680 10681 10682 10682 10683 10684 10685 10685 10686 10686 10686 10686 10686 10686 10686 10686 10686 10685 10685 10685 10684 10684 10683 10682 10681 10680 10678 10677 10675 10673 10672 10669 10667 10665 10662 10659 10656 10652 10649 10645 10641 10636 10632 10627 10623 10617 10612 10607 10601 10595 10589 10584 10578 10572 10565 10558 10550 10542 10534 10526 10518 10510 10503 10494 10481 10465 10452 10444 10434 10421 10412 10404 10394 10380 10366 10352 10335 10318 10301 10285 10267
10675 10676 10677 10678 10679 10680 10681 10681 10682 10683 10683 10684 10685 10685 10685 10686 10686 10686 10686 10686 10686 10685 10685 10685 10684 10684 10683 10683 10682 10681 10680 10679 10677 10676 10674 10672 10670 10668 10666 10663 10661 10657 10654 10650 10647 10643 10639 10635 10630 10625 10620 10615 10609 10604 10599 10593 10588 10582 10576 10569 10562 10555 10547 10540 10532 10524 10516 10507 10495 10481 10470 10463 10456 10446 10433 10422 10413 10403 10390 10375 10357 10338 10322 10308 10295 10282 10269
10676 10677 10677 10678 10679 10680 10681 10682 10682 10683 10683 10684 10684 10685 10685 10685 10685 10685 10685 10685 10685 10685 10684 10684 10683 10683 10682 10682 10681 10680 10679 10678 10676 10675 10673 10671 10669 10667 10665 10662 10659 10656 10652 10649 10645 10641 10637 10633 10629 10624 10618 10613 10608 10603 10598 10592 10586 10579 10572 10565 10558 10550 10543 10536 10528 10521 10513 10505 10497 10487 10479 10471 10460 10446 10434 10421 10403 10382 10366 10355 10343 10328 10315 10305 10295 10284 10273
10676 10677 10678 10678 10679 10680 10681 10682 10682 10682 10683 10683 10684 10684 10684 10684 10684 10684 10684 10684 10684 10684 10683 10683 10682 10682 10682 10681 10680 10679 10678 10677 10675 10673 10672 10670 10668 10666 10663 10660 10657 10654 10651 10648 10644 10640 10636 10632 10628 10623 10618 10613 10608 10603 10597 10590 10583 10577 10569 10562 10554 10546 10539 10531 10524 10516 10508 10500 10495 10489 10479 10466 10453 10442 10430 10417 10404 10391 10376 10358 10343 10332 10324 10313 10300 10286 10270
10676 10677 10677 10678 10679 10680 10680 10681 10681 10682 10682 10683 10683 10683 10684 10684 10684 10683 10683 10683 10683 10683 10682 10682 10681 10681 10680 10680 10679 10678 10677 10675 10674 10672 10671 10669 10667 10664 10661 10659 10656 10652 10649 10646 10642 10639 10635 10630 10626 10622 10617 10612 10607 10601 10595 10589 10582 10575 10567 10559 10552 10544 10536 10528 10521 10514 10506 10495 10484 10475 10467 10458 10448 10436 10423 10411 10404 10398 10389 10375 10361 10348 10334 10318 10300 10282 10264
10676 10676 10677 10677 10678 10679 10679 10680 10681 10681 10681 10682 10682 10683 10683 10683 10683 10682 10682 10682 10682 10682 10681 10681 10680 10680 10679 10678 10677 10676 10675 10674 10672 10671 10669 10667 10665 10663 10660 10657 10654 10651 10648 10644 10641 10637 10633 10629 10625 10620 10615 10610 10605 10599 10594 10589 10582 10575 10568 10559 10551 10543 10535 10527 10520 10512 10504 10495 10484 10472 10461 10451 10442 10434 10426 10415 10401 10387 10380 10377 10367 10349 10329 10312 10295 10278 10261
10676 10676 10676 10677 10677 10678 10678 10679 10680 10680 10680 10681 10681 10682 10682 10682 10681 10681 10681 10681 10681 10680 10680 10680 10679 10678 10678 10677 10676 10675 10674 10673 10671 10670 10668 10666 10664 10661 10658 10655 10652 10649 10646 10643 10639 10635 10632 10627 10623 10619 10614 10608 10603 10598 10592 10587 10581 10574 10567 10560 10552 10543 10535 10527 10519 10510 10502 10494 10485 10473 10462 10451 10441 10432 10423 10414 10404 10393 10380 10365 10351 10337 10323 10308 10293 10278 10262
10675 10676 10676 10676 10676 10677 10677 10678 10678 10679 10680 10680 10680 10681 10681 10680 10680 10680 10680 10680 10679 10679 10679 10678 10677 10677 10676 10675 10675 10674 10672 10671 10670 10668 10666 10665 10662 10660 10657 10654 10651 10648 10644 10641 10638 10634 10630 10626 10621 10617 10612 10607 10602 10596 10590 10584 10578 10571 10564 10558 10550 10543 10535 10526 10517 10509 10500 10492 10485 10478 10469 10458 10445 10433 10421 10411 10404 10395 10379 10360 10344 10334 10322 10309 10295 10280 10265
10674 10675 10675 10675 10675 10676 10676 10677 10677 10678 10678 10679 10679 10679 10679 10679 10679 10679 10678 10678 10678 10678 10677 10677 10676 10675 10675 10674 10673 10672 10671 10670 10668 10667 10665 10663 10660 10658 10655 10652 10649 10646 10643 10639 10636 10632 10628 10624 10620 10615 10611 10606 10600 10594 10588 10581 10575 10568 10561 10554 10547 10540 10532 10524 10515 10507 10499 10490 10482 10472 10461 10450 10440 10431 10423 10414 10401 10387 10374 10362 10350 10339 10326 10313 10298 10283 10268
10674 10674 10674 10674 10674 10674 10675 10675 10675 10676 10676 10677 10677 10677 10677 10677 10677 10677 10677 10676 10676 10676 10675 10675 10674 10673 10673 10672 10671 10670 10669 10668 10666 10665 10663 10661 10658 10656 10653 10650 10647 10644 10641 10638 10634 10631 10627 10623 10618 10614 10609 10604 10598 10592 10586 10580 10573 10566 10559 10552 10544 10535 10527 10519 10509 10500 10493 10484 10472 10460 10449 10441 10434 10425 10415 10405 10394 10381 10370 10360 10350 10340 10329 10317 10302 10286 10272
10673 10673 10673 10673 10673 10673 10673 10673 10674 10674 10674 10675 10675 10675 10675 10675 10675 10675 10675 10675 10674 10674 10673 10673 10672 10672 10671 10670 10669 10668 10667 10666 10664 10662 10661 10659 10656 10654 10651 10648 10645 10642 10639 10636 10632 10629 10625 10620 10616 10612 10607 10602 10597 10591 10584 10578 10572 10565 10557 10550 10541 10533 10524 10516 10507 10497 10487 10479 10471 10463 10454 10445 10435 10426 10415 10404 10393 10382 10371 10360 10348 10337 10326 10315 10303 10289 10274
10672 10672 10671 10671 10671 10671 10671 10671 10671 10672 10672 10672 10673 10673 10673 10673 10673 10673 10673 10673 10672 10672 10671 10671 10670 10670 10669 10668 10667 10666 10665 10663 10662 10660 10658 10656 10654 10652 10649 10646 10643 10640 10637 10634 10630 10626 10622 10618 10614 10610 10605 10600 10595 10589 10583 10576 10570 10563 10556 10548 10540 10532 10523 10515 10508 10500 10489 10479 10471 10463 10455 10446 10437 10428 10418 10406 10395 10386 10376 10365 10353 10340 10326 10313 10300 10288 10275
10670 10670 10670 10669 10669 10669 10669 10669 10669 10669 10670 10670 10670 10671 10671 10671 10671 10671 10671 10671 10670 10670 10669 10669 10668 10667 10667 10666 10665 10664 10662 10661 10659 10658 10656 10654 10652 10649 10647 10644 10641 10638 10634 10631 10628 10624 10620 10616 10612 10608 10603 10597 10592 10586 10580 10574 10568 10562 10555 10547 10539 10532 10524 10515 10507 10500 10491 10481 10470 10460 10452 10444 10436 10426 10416 10406 10397 10387 10377 10366 10355 10342 10328 10313 10301 10291 10279
10668 10668 10668 10667 10667 10667 10667 10667 10667 10667 10667 10668 10668 10668 10668 10669 10669 10669 10669 10668 10668 10668 10667 10667 10666 10665 10664 10663 10662 10661 10660 10659 10657 10655 10653 10652 10649 10647 10644 10642 10639 10636 10632 10629 10625 10622 10618 10614 10610 10605 10600 10595 10590 10584 10578 10572 10566 10559 10553 10546 10539 10531 10523 10515 10506 10498 10490 10481 10471 10461 10451 10442 10434 10425 10417 10408 10397 10386 10375 10364 10353 10339 10324 10312 10303 10294 10283
10666 10666 10665 10665 10665 10665 10665 10665 10665 10665 10665 10665 10665 10665 10666 10666 10666 10666 10666 10666 10665 10665 10665 10664 10664 10663 10662 10661 10660 10659 10657 10656 10654 10653 10651 10649 10647 10644 10642 10639 10636 10633 10630 10626 10623 10619 10616 10612 10607 10603 10598 10593 10587 10582 10576 10570 10564 10557 10551 10544 10538 10530 10522 10514 10506 10498 10490 10483 10474 10464 10455 10445 10436 10427 10418 10407 10396 10385 10374 10362 10350 10338 10326 10316 10305 10294 10283
10664 10664 10663 10663 10663 10663 10663 10662 10662 10662 10662 10662 10662 10662 10663 10663 10663 10663 10663 10663 10663 10662 10662 10662 10661 10660 10659 10658 10657 10656 10655 10653 10652 10650 10648 10646 10644 10642 10639 10637 10634 10631 10627 10624 10620 10617 10613 10609 10605 10600 10596 10590 10585 10579 10573 10567 10561 10555 10549 10542 10536 10529 10521 10512 10505 10497 10489 10481 10473 10464 10455 10446 10437 10427 10417 10407 10397 10387 10376 10365 10353 10343 10334 10324 10312 10297 10285
10662 10662 10662 10661 10661 10661 10660 10660 10660 10659 10659 10659 10659 10659 10660 10660 10660 10660 10660 10660 10660 10660 10659 10659 10658 10657 10657 10656 10654 10653 10652 10651 10649 10647 10645 10643 10641 10639 10636 10634 10631 10628 10625 10621 10618 10614 10610 10606 10602 10598 10593 10588 10583 10577 10571 10565 10559 10553 10546 10540 10533 10526 10519 10511 10503 10494 10486 10479 10471 10462 10453 10444 10435 10426 10416 10407 10398 10387 10377 10367 10357 10348 10340 10330 10317 10304 10290
10660 10660 10659 10659 10659 10658 10658 10658 10657 10657 10657 10656 10656 10657 10657 10657 10657 10657 10657 10657 10657 10657 10656 10656 10655 10655 10654 10653 10652 10651 10649 10648 10646 10645 10643 10641 10639 10636 10634 10631 10628 10625 10622 10618 10615 10611 10607 10604 10600 10595 10591 10586 10581 10575 10569 10563 10556 10550 10543 10537 10530 10524 10517 10510 10502 10493 10485 10477 10469 10461 10452 10443 10433 10425 10416 10407 10398 10388 10377 10367 10358 10350 10341 10330 10317 10305 10294
10658 10657 10657 10656 10656 10656 10655 10655 10655 10654 10654 10654 10654 10654 10654 10654 10654 10654 10654 10654 10654 10654 10653 10653 10652 10652 10651 10650 10649 10648 10646 10645 10643 10642 10640 10638 10636 10633 10631 10628 10625 10622 10619 10616 10612 10608 10605 10601 10597 10593 10588 10583 10578 10574 10568 10561 10555 10548 10542 10535 10529 10522 10516 10509 10501 10493 10485 10476 10467 10459 10452 10443 10434 10425 10416 10407 10397 10387 10378 10369 10360 10350 10339 10327 10316 10306 10295
10655 10655 10654 10654 10653 10653 10653 10652 10652 10652 10651 10651 10651 10650 10650 10650 10650 10651 10651 10650 10650 10650 10650 10649 10649 10648 10648 10647 10646 10645 10643 10642 10640 10638 10637 10635 10632 10630 10628 10625 10622 10619 10616 10613 10609 10605 10602 10598 10594 10590 10585 10580 10575 10570 10566 10560 10553 10547 10540 10533 10526 10520 10514 10507 10500 10492 10484 10476 10467 10458 10450 10442 10433 10424 10415 10406 10397 10388 10379 10370 10360 10348 10337 10327 10317 10307 10295
10653 10652 10652 10651 10651 10650 10650 10649 10649 10649 10649 10648 10648 10647 10647 10647 10647 10647 10647 10647 10647 10647 10647 10646 10646 10645 10645 10644 10643 10641 10640 10638 10637 10635 10633 10631 10629 10627 10624 10622 10619 10616 10613 10609 10606 10602 10598 10595 10591 10587 10582 10577 10572 10567 10562 10557 10551 10544 10538 10531 10524 10517 10511 10504 10497 10490 10482 10475 10467 10458 10449 10441 10432 10424 10415 10407 10398 10390 10380 10369 10358 10347 10336 10325 10315 10305 10294
10651 10650 10650 10649 10648 10647 10647 10646 10646 10646 10646 10645 10645 10644 10644 10644 10644 10644 10644 10644 10643 10643 10643 10643 10643 10642 10641 10640 10639 10638 10636 10635 10633 10632 10630 10628 10626 10623 10621 10618 10616 10613 10610 10606 10603 10599 10595 10592 10588 10584 10579 10575 10570 10564 10558 10553 10547 10541 10535 10528 10522 10515 10508 10501 10494 10488 10481 10473 10465 10458 10450 10441 10433 10424 10415 10407 10399 10389 10379 10369 10358 10347 10337 10326 10316 10307 10297
10649 10648 10648 10647 10646 10645 10644 10644 10643 10643 10643 10642 10642 10641 10641 10640 10640 10640 10640 10640 10640 10640 10639 10639 10639 10638 10638 10637 10636 10634 10633 10631 10630 10628 10626 10624 10622 10620 10618 10615 10612 10609 10606 10603 10599 10596 10592 10588 10585 10581 10576 10571 10567 10562 10556 10550 10545 10539 10532 10526 10519 10512 10505 10498 10492 10485 10478 10471 10463 10455 10448 10440 10432 10424 10415 10406 10397 10388 10378 10368 10359 10349 10339 10329 10319 10310 10300
10646 10646 10645 10644 10643 10642 10641 10640 10640 10640 10639 10639 10639 10638 10638 10637 10636 10636 10636 10636 10636 10636 10635 10635 10635 10635 10634 10633 10632 10630 10629 10628 10626 10624 10623 10621 10619 10616 10614 10611 10609 10606 10603 10599 10596 10592 10589 10585 10581 10578 10573 10568 10563 10558 10553 10547 10542 10536 10530 10524 10517 10510 10503 10496 10489 10483 10476 10469 10461 10453 10446 10438 10430 10422 10414 10405 10396 10387 10377 10368 10359 10350 10341 10331 10321 10311 10301
10643 10643 10642 10641 10640 10639 10638 10637 10637 10636 10636 10636 10635 10635 10634 10634 10633 10632 10632 10632 10632 10632 10632 10631 10631 10630 10630 10629 10628 10626 10625 10624 10622 10620 10619 10617 10615 10613 10610 10608 10605 10602 10599 10596 10593 10589 10585 10582 10578 10574 10570 10565 10560 10554 10549 10544 10539 10533 10527 10521 10514 10508 10501 10494 10487 10480 10474 10467 10459 10451 10444 10437 10429 10421 10413 10405 10396 10387 10377 10369 10360 10351 10342 10332 10322 10311 10301
10640 10639 10639 10638 10637 10636 10635 10634 10633 10633 10633 10632 10632 10632 10631 10630 10629 10629 10628 10628 10627 10627 10627 10627 10626 10626 10625 10624 10623 10622 10621 10619 10617 10616 10615 10613 10611 10609 10607 10604 10602 10599 10596 10593 10590 10585 10582 10578 10574 10570 10565 10561 10556 10550 10545 10540 10535 10530 10524 10518 10512 10505 10499 10492 10485 10478 10471 10465 10458 10451 10443 10436 10429 10420 10412 10404 10395 10386 10377 10369 10360 10351 10342 10333 10322 10312 10301
10637 10636 10635 10634 10633 10632 10632 10631 10630 10630 10629 10629 10628 10628 10627 10627 10626 10625 10624 10624 10623 10623 10622 10622 10621 10621 10620 10619 10618 10617 10616 10615 10613 10611 10610 10609 10607 10605 10603 10601 10598 10595 10592 10589 10586 10582 10578 10575 10571 10566 10561 10557 10552 10547 10542 10537 10532 10527 10521 10515 10509 10503 10496 10490 10483 10476 10470 10463 10456 10449 10442 10434 10427 10419 10411 10403 10394 10386 10377 10368 10359 10350 10341 10332 10322 10312 10301
10634 10633 10632 10631 10630 10629 10628 10627 10627 10626 10625 10625 10624 10624 10623 10623 10622 10621 10620 10619 10618 10618 10617 10617 10616 10615 10615 10614 10613 10612 10611 10610 10609 10607 10606 10604 10603 10601 10599 10597 10594 10591 10588 10585 10582 10579 10576 10572 10568 10563 10558 10553 10548 10543 10538 10533 10528 10523 10518 10512 10506 10501 10494 10488 10481 10474 10468 10461 10454 10447 10439 10432 10425 10417 10409 10401 10393 10385 10376 10367 10358 10349 10339 10330 10321 10312 10302
10630 10629 10628 10627 10626 10626 10625 10624 10623 10623 10622 10621 10620 10620 10619 10618 10618 10617 10616 10615 10614 10612 10612 10611 10611 10610 10610 10609 10608 10607 10606 10605 10604 10603 10601 10600 10598 10596 10595 10592 10590 10587 10584 10581 10578 10575 10572 10568 10564 10560 10556 10551 10545 10540 10535 10530 10525 10520 10515 10510 10504 10498 10492 10486 10479 10473 10466 10459 10452 10445 10437 10430 10422 10415 10407 10399 10392 10383 10375 10365 10356 10346 10337 10328 10320 10311 10301
10627 10626 10625 10624 10623 10622 10621 10620 10619 10619 10618 10617 10616 10615 10615 10614 10613 10612 10611 10610 10609 10608 10607 10606 10606 10605 10604 10604 10603 10602 10601 10600 10599 10598 10597 10595 10593 10591 10590 10588 10585 10583 10580 10577 10574 10572 10569 10565 10560 10556 10552 10548 10543 10538 10533 10527 10522 10517 10512 10507 10501 10496 10490 10484 10477 10471 10464 10457 10450 10443 10435 10427 10420 10413 10405 10398 10390 10381 10373 10364 10355 10345 10336 10327 10318 10309 10300
10623 10622 10621 10620 10619 10618 10617 10616 10615 10614 10613 10612 10611 10610 10610 10609 10608 10607 10606 10605 10604 10603 10602 10601 10601 10600 10599 10598 10598 10597 10596 10595 10594 10593 10592 10590 10588 10587 10585 10583 10581 10579 10576 10573 10570 10567 10564 10561 10557 10552 10548 10544 10540 10535 10530 10524 10519 10513 10508 10503 10498 10493 10487 10481 10474 10468 10461 10455 10448 10440 10433 10425 10417 10410 10403 10395 10387 10379 10371 10362 10353 10344 10335 10326 10317 10308 10298
10619 10618 10617 10616 10614 10613 10612 10611 10610 10609 10608 10607 10606 10605 10604 10603 10602 10601 10601 10600 10599 10598 10597 10596 10595 10595 10594 10593 10592 10592 10591 10590 10589 10588 10587 10585 10584 10582 10580 10578 10576 10573 10571 10568 10565 10562 10559 10556 10552 10548 10544 10540 10536 10531 10526 10521 10515 10509 10504 10499 10494 10489 10483 10477 10471 10465 10458 10452 10445 10438 10431 10423 10415 10408 10401 10393 10385 10377 10368 10360 10351 10342 10333 10324 10315 10305 10296
10616 10614 10613 10611 10610 10608 10607 10606 10605 10603 10602 10601 10600 10599 10598 10597 10597 10596 10595 10594 10594 10593 10592 10591 10590 10589 10588 10588 10587 10586 10585 10584 10583 10582 10581 10580 10578 10577 10575 10573 10571 10568 10565 10562 10560 10557 10553 10550 10547 10543 10539 10535 10532 10527 10522 10517 10511 10505 10500 10495 10490 10485 10479 10474 10468 10461 10455 10448 10442 10435 10428 10421 10413 10405 10397 10390 10382 10374 10366 10357 10349 10340 10331 10322 10313 10304 10295
10613 10611 10609 10608 10606 10604 10602 10600 10599 10598 10597 10596 10595 10594 10593 10592 10591 10590 10589 10589 10588 10587 10586 10586 10585 10584 10583 10582 10581 10580 10579 10578 10577 10577 10576 10575 10573 10571 10570 10568 10566 10564 10560 10557 10554 10552 10548 10545 10542 10539 10535 10531 10527 10522 10517 10512 10506 10501 10495 10489 10484 10479 10475 10469 10463 10457 10451 10444 10438 10431 10425 10417 10410 10402 10394 10387 10379 10370 10362 10354 10346 10337 10329 10320 10311 10302 10293
10609 10607 10605 10604 10602 10599 10598 10596 10594 10593 10591 10590 10589 10588 10587 10586 10585 10584 10584 10583 10582 10581 10581 10580 10579 10578 10577 10576 10575 10574 10573 10573 10571 10570 10570 10570 10568 10566 10564 10562 10561 10559 10556 10552 10549 10547 10544 10540 10537 10534 10530 10526 10522 10517 10512 10507 10501 10495 10489 10484 10479 10474 10470 10465 10459 10453 10446 10440 10434 10427 10421 10414 10406 10398 10391 10383 10375 10367 10359 10351 10343 10334 10326 10317 10309 10300 10292
10606 10604 10602 10600 10598 10596 10594 10592 10590 10588 10587 10585 10584 10583 10582 10581 10580 10579 10578 10578 10577 10576 10575 10574 10573 10572 10571 10571 10570 10569 10568 10567 10566 10565 10565 10564 10562 10560 10558 10557 10554 10553 10551 10548 10545 10542 10539 10537 10533 10529 10526 10522 10517 10512 10507 10502 10496 10490 10484 10478 10474 10469 10465 10460 10454 10448 10442 10436 10429 10423 10416 10410 10403 10395 10387 10380 10372 10364 10356 10347 10339 10331 10322 10314 10306 10297 10289
10604 10602 10599 10597 10595 10593 10590 10588 10587 10585 10583 10581 10580 10579 10578 10577 10576 10575 10574 10573 10572 10571 10570 10569 10568 10567 10566 10565 10564 10563 10563 10562 10560 10559 10559 10559 10558 10555 10553 10551 10549 10547 10545 10544 10541 10537 10535 10532 10529 10525 10521 10517 10512 10507 10501 10496 10490 10483 10477 10472 10468 10464 10460 10455 10449 10443 10437 10431 10425 10418 10412 10405 10398 10391 10383 10376 10368 10360 10352 10344 10336 10327 10319 10311 10302 10294 10285
10602 10600 10598 10595 10592 10590 10588 10585 10583 10582 10580 10578 10577 10576 10574 10573 10572 10572 10571 10570 10569 10568 10567 10566 10565 10563 10562 10561 10560 10559 10558 10557 10556 10554 10553 10553 10553 10551 10549 10547 10545 10542 10540 10538 10536 10534 10531 10527 10524 10521 10517 10512 10507 10502 10496 10490 10483 10477 10471 10466 10462 10459 10455 10450 10444 10438 10431 10425 10419 10413 10407 10400 10393 10386 10379 10371 10364 10356 10349 10341 10333 10324 10316 10308 10299 10291 10283
10600 10598 10596 10593 10591 10588 10585 10583 10581 10579 10577 10575 10574 10573 10572 10571 10570 10569 10568 10567 10566 10565 10563 10562 10561 10560 10559 10557 10556 10555 10554 10553 10552 10550 10549 10549 10548 10547 10544 10542 10540 10539 10536 10533 10531 10529 10527 10523 10520 10516 10512 10507 10502 10496 10490 10484 10477 10471 10465 10460 10457 10454 10449 10444 10438 10432 10426 10420 10414 10407 10401 10395 10388 10381 10374 10367 10359 10352 10344 10337 10329 10321 10313 10305 10296 10288 10280
10599 10597 10594 10592 10589 10587 10584 10582 10579 10577 10575 10574 10572 10571 10569 10568 10567 10566 10565 10564 10563 10562 10560 10559 10558 10557 10555 10554 10552 10551 10551 10550 10548 10546 10545 10545 10544 10543 10541 10538 10536 10534 10531 10528 10526 10524 10521 10518 10515 10511 10506 10501 10496 10490 10484 10478 10471 10465 10459 10455 10451 10448 10444 10439 10433 10426 10420 10414 10408 10402 10396 10390 10383 10377 10369 10362 10354 10347 10340 10332 10325 10317 10309 10301 10293 10285 10277
10598 10595 10593 10591 10588 10586 10583 10581 10579 10576 10574 10572 10571 10569 10568 10566 10565 10564 10562 10561 10560 10559 10557 10556 10554 10553 10552 10551 10549 10548 10548 10547 10544 10542 10541 10540 10539 10539 10537 10534 10532 10529 10527 10523 10520 10517 10514 10511 10508 10504 10500 10495 10489 10483 10477 10472 10466 10460 10455 10451 10446 10442 10438 10432 10426 10420 10414 10408 10402 10396 10390 10384 10378 10372 10364 10357 10349 10342 10334 10327 10320 10313 10305 10297 10289 10281 10273